• în România
  • Lista ţărilor
  • Pe 7 zile
  • Temperatura apei
  • Hartă satelitară
  • Meteo pe hartă
  • Widget-uri
  • user-avatar
    Intrare

    Meteo pe oră la Naftalan

    Astăzi, 27 Iunie, Marţi

    Timp Temperatura Precipitaţii Vânt Presiune Umiditate
    00:00 +24°C° 0 mm 3 m/s 765 mmHg 77%
    01:00 +24°C° 0 mm 3 m/s 765 mmHg 78%
    02:00 +24°C° 0 mm 3 m/s 764 mmHg 80%
    03:00 +22°C° 0 mm 3 m/s 764 mmHg 81%
    04:00 +24°C° 0 mm 3 m/s 764 mmHg 78%
    05:00 +25°C° 0 mm 3 m/s 764 mmHg 75%
    06:00 +26°C° 0 mm 3 m/s 764 mmHg 71%
    07:00 +28°C° 0 mm 3 m/s 764 mmHg 64%
    08:00 +29°C° 0 mm 3 m/s 764 mmHg 57%
    09:00 +32°C° 0 mm 4 m/s 763 mmHg 49%
    10:00 +33°C° 0 mm 4 m/s 763 mmHg 46%
    11:00 +34°C° 0 mm 4 m/s 763 mmHg 43%
    12:00 +35°C° 0 mm 5 m/s 762 mmHg 40%
    13:00 +35°C° 0 mm 5 m/s 762 mmHg 41%
    14:00 +35°C° 0 mm 5 m/s 761 mmHg 42%
    15:00 +34°C° 0 mm 6 m/s 761 mmHg 43%
    16:00 +33°C° 0 mm 5 m/s 760 mmHg 48%
    17:00 +32°C° 0 mm 5 m/s 760 mmHg 52%
    18:00 +30°C° 0 mm 5 m/s 760 mmHg 57%
    19:00 +29°C° 0 mm 5 m/s 760 mmHg 64%
    20:00 +27°C° 0 mm 4 m/s 760 mmHg 70%
    21:00 +26°C° 0 mm 3 m/s 760 mmHg 76%
    22:00 +26°C° 0 mm 3 m/s 760 mmHg 79%
    23:00 +25°C° 0 mm 3 m/s 760 mmHg 81%

    Mâine, 28 Iunie, Miercuri

    Timp Temperatura Precipitaţii Vânt Presiune Umiditate
    00:00 +25°C° 0 mm 2 m/s 760 mmHg 83%
    01:00 +24°C° 0 mm 2 m/s 760 mmHg 84%
    02:00 +24°C° 0 mm 2 m/s 759 mmHg 85%
    03:00 +24°C° 0 mm 2 m/s 759 mmHg 86%
    04:00 +25°C° 0 mm 2 m/s 759 mmHg 82%
    05:00 +26°C° 0 mm 1 m/s 759 mmHg 78%
    06:00 +25°C° 0 mm 0 m/s 759 mmHg 74%
    07:00 +29°C° 0 mm 1 m/s 759 mmHg 65%
    08:00 +31°C° 0 mm 1 m/s 759 mmHg 57%
    09:00 +32°C° 0 mm 1 m/s 759 mmHg 48%
    10:00 +35°C° 0 mm 2 m/s 759 mmHg 43%
    11:00 +36°C° 0 mm 3 m/s 759 mmHg 38%
    12:00 +38°C° 0 mm 3 m/s 758 mmHg 33%
    13:00 +38°C° 0 mm 4 m/s 758 mmHg 32%
    14:00 +40°C° 0 mm 4 m/s 758 mmHg 30%
    15:00 +40°C° 0 mm 5 m/s 757 mmHg 29%
    16:00 +37°C° 0 mm 4 m/s 757 mmHg 32%
    17:00 +36°C° 0 mm 4 m/s 757 mmHg 34%
    18:00 +35°C° 0 mm 4 m/s 756 mmHg 37%
    19:00 +33°C° 0 mm 3 m/s 757 mmHg 44%
    20:00 +30°C° 0 mm 2 m/s 757 mmHg 51%
    21:00 +28°C° 0 mm 2 m/s 758 mmHg 58%
    22:00 +27°C° 0 mm 2 m/s 758 mmHg 58%
    23:00 +27°C° 0 mm 2 m/s 758 mmHg 59%

    Poimâine, 29 Iunie, Joi

    Timp Temperatura Precipitaţii Vânt Presiune Umiditate
    00:00 +26°C° 0 mm 3 m/s 758 mmHg 59%
    01:00 +26°C° 0 mm 3 m/s 757 mmHg 59%
    02:00 +26°C° 0 mm 3 m/s 757 mmHg 59%
    03:00 +25°C° 0 mm 3 m/s 757 mmHg 58%
    04:00 +26°C° 0 mm 3 m/s 757 mmHg 53%
    05:00 +28°C° 0 mm 3 m/s 758 mmHg 49%
    06:00 +29°C° 0 mm 3 m/s 758 mmHg 44%
    07:00 +31°C° 0 mm 3 m/s 758 mmHg 37%
    08:00 +34°C° 0 mm 4 m/s 758 mmHg 29%
    09:00 +36°C° 0 mm 4 m/s 758 mmHg 22%
    10:00 +38°C° 0 mm 4 m/s 758 mmHg 20%
    11:00 +40°C° 0 mm 4 m/s 758 mmHg 18%
    12:00 +41°C° 0 mm 5 m/s 758 mmHg 15%
    13:00 +41°C° 0 mm 5 m/s 757 mmHg 15%
    14:00 +41°C° 0 mm 5 m/s 757 mmHg 16%
    15:00 +41°C° 0 mm 6 m/s 757 mmHg 16%
    16:00 +40°C° 0 mm 5 m/s 757 mmHg 18%
    17:00 +39°C° 0 mm 5 m/s 757 mmHg 20%
    18:00 +36°C° 0 mm 4 m/s 757 mmHg 22%
    19:00 +34°C° 0 mm 4 m/s 757 mmHg 28%
    20:00 +30°C° 0 mm 3 m/s 757 mmHg 34%
    21:00 +28°C° 0 mm 3 m/s 758 mmHg 40%
    22:00 +27°C° 0 mm 2 m/s 758 mmHg 42%
    23:00 +27°C° 0 mm 2 m/s 757 mmHg 45%

    30 Iunie, Vineri

    Timp Temperatura Precipitaţii Vânt Presiune Umiditate
    00:00 +26°C° 0 mm 2 m/s 757 mmHg 47%
    01:00 +25°C° 0 mm 2 m/s 757 mmHg 46%
    02:00 +25°C° 0 mm 3 m/s 757 mmHg 44%
    03:00 +25°C° 0 mm 3 m/s 757 mmHg 43%
    04:00 +26°C° 0 mm 3 m/s 757 mmHg 39%
    05:00 +28°C° 0 mm 4 m/s 757 mmHg 34%
    06:00 +29°C° 0 mm 4 m/s 757 mmHg 30%
    07:00 +32°C° 0 mm 4 m/s 758 mmHg 26%
    08:00 +35°C° 0 mm 4 m/s 758 mmHg 21%
    09:00 +37°C° 0 mm 4 m/s 758 mmHg 17%
    10:00 +39°C° 0 mm 5 m/s 758 mmHg 16%
    11:00 +41°C° 0 mm 6 m/s 758 mmHg 15%
    12:00 +42°C° 0 mm 6 m/s 757 mmHg 14%
    13:00 +43°C° 0 mm 7 m/s 757 mmHg 15%
    14:00 +43°C° 0 mm 8 m/s 757 mmHg 15%
    15:00 +41°C° 0 mm 8 m/s 757 mmHg 16%
    16:00 +40°C° 0 mm 8 m/s 757 mmHg 18%
    17:00 +39°C° 0 mm 7 m/s 757 mmHg 20%
    18:00 +36°C° 0 mm 6 m/s 758 mmHg 22%
    19:00 +34°C° 0 mm 6 m/s 758 mmHg 26%
    20:00 +32°C° 0 mm 6 m/s 759 mmHg 31%
    21:00 +29°C° 0 mm 6 m/s 759 mmHg 35%
    22:00 +28°C° 0 mm 5 m/s 759 mmHg 37%
    23:00 +28°C° 0 mm 5 m/s 759 mmHg 38%

    1 Iulie, Sâmbătă

    Timp Temperatura Precipitaţii Vânt Presiune Umiditate
    00:00 +27°C° 0 mm 5 m/s 759 mmHg 40%
    01:00 +27°C° 0 mm 5 m/s 759 mmHg 39%
    02:00 +26°C° 0 mm 5 m/s 759 mmHg 38%
    03:00 +26°C° 0 mm 5 m/s 759 mmHg 38%
    04:00 +27°C° 0 mm 5 m/s 759 mmHg 35%
    05:00 +28°C° 0 mm 5 m/s 760 mmHg 32%
    06:00 +29°C° 0 mm 4 m/s 760 mmHg 30%
    07:00 +32°C° 0 mm 5 m/s 760 mmHg 26%
    08:00 +35°C° 0 mm 6 m/s 760 mmHg 23%
    09:00 +38°C° 0 mm 7 m/s 760 mmHg 20%
    10:00 +39°C° 0 mm 7 m/s 760 mmHg 19%
    11:00 +40°C° 0 mm 8 m/s 760 mmHg 19%
    12:00 +41°C° 0 mm 8 m/s 760 mmHg 18%
    13:00 +41°C° 0 mm 8 m/s 760 mmHg 19%
    14:00 +40°C° 0 mm 8 m/s 760 mmHg 20%
    15:00 +40°C° 0 mm 8 m/s 760 mmHg 21%
    16:00 +39°C° 0 mm 7 m/s 760 mmHg 23%
    17:00 +38°C° 0 mm 6 m/s 760 mmHg 25%
    18:00 +36°C° 0 mm 5 m/s 760 mmHg 27%
    19:00 +33°C° 0 mm 4 m/s 761 mmHg 34%
    20:00 +30°C° 0 mm 3 m/s 761 mmHg 41%
    21:00 +28°C° 0 mm 3 m/s 761 mmHg 48%
    22:00 +27°C° 0 mm 2 m/s 761 mmHg 50%
    23:00 +27°C° 0 mm 2 m/s 761 mmHg 51%

    2 Iulie, Duminică

    Timp Temperatura Precipitaţii Vânt Presiune Umiditate
    00:00 +26°C° 0 mm 1 m/s 761 mmHg 53%
    01:00 +26°C° 0 mm 2 m/s 761 mmHg 53%
    02:00 +26°C° 0 mm 2 m/s 761 mmHg 53%
    03:00 +25°C° 0 mm 2 m/s 760 mmHg 53%
    04:00 +26°C° 0 mm 3 m/s 760 mmHg 49%
    05:00 +28°C° 0 mm 3 m/s 760 mmHg 45%
    06:00 +29°C° 0 mm 3 m/s 760 mmHg 41%
    07:00 +31°C° 0 mm 3 m/s 760 mmHg 35%
    08:00 +34°C° 0 mm 3 m/s 760 mmHg 28%
    09:00 +36°C° 0 mm 3 m/s 760 mmHg 22%
    10:00 +38°C° 0 mm 3 m/s 760 mmHg 20%
    11:00 +39°C° 0 mm 3 m/s 759 mmHg 18%
    12:00 +42°C° 0 mm 3 m/s 759 mmHg 16%
    13:00 +42°C° 0 mm 4 m/s 758 mmHg 16%
    14:00 +42°C° 0 mm 4 m/s 758 mmHg 16%
    15:00 +42°C° 0 mm 5 m/s 758 mmHg 16%
    16:00 +41°C° 0 mm 4 m/s 758 mmHg 20%
    17:00 +38°C° 0 mm 4 m/s 757 mmHg 24%
    18:00 +36°C° 0 mm 4 m/s 757 mmHg 28%
    19:00 +34°C° 0 mm 3 m/s 758 mmHg 34%
    20:00 +31°C° 0 mm 3 m/s 758 mmHg 40%
    21:00 +28°C° 0 mm 2 m/s 758 mmHg 46%
    22:00 +28°C° 0 mm 2 m/s 758 mmHg 47%
    23:00 +28°C° 0 mm 2 m/s 757 mmHg 48%
    Arată mai mult